To NAV CANADA Home Page Login to a new session Search on AWWS site Disclaimer Vers la page française équivalente Tips FAQ What's new on the site To the Forecasts and Observations / NOTAM section To "File a Flight Plan" website Publications and other links Update of the User's profile FIC Telephone Numbers My Weather Data Folder Route Weather Data Regional Weather Data Local Weather Data To the Forecasts and Observations / NOTAM section
Request Generated 10/21/2018 at 05:49:40 UTC . Weather information available at that time is displayed.

METAR/TAF

KANGIQSUALUJJUAQ (GEORGES RIVER)/QC    

LWIS CYLU 210500Z AUTO 02007KT M07/M11 A2968=
LWIS CYLU 210400Z AUTO 05008KT M07/M13 A2969=
LWIS CYLU 210300Z AUTO 03010G16KT M07/M13 A2970=

CYLU - No TAF is issued for this station

Your time UTC time
Weather data provided by Environment Canada and NAV CANADA